Location: Clermont
(50.2608°N, 4.3172°E)
Time: 05:56:40
(UTC+00:00)

Cosmos 1602 - Pass Details

Date: 13 August 2020
Orbit: 513 x 535 km, 82.5° (Epoch: 26 September)

Event Time Altitude Azimuth Distance (km) Brightness Sun altitude
Exits shadow 21:02:44 15° 194° (SSW) 1,487 5.7 -16.0°
Maximum altitude 21:05:55 78° 280° (W) 553 3.8 -16.4°
Drops below altitude 10° 21:09:54 10° 8° (N) 1,804 7.0 -16.8°
Sets 21:12:04 0° 10° (N) 2,701 8.0 -17.0°
